GW5906 Weather Reports


time (UTC)temp
C
wind
direction
speed
KPH
gust
KPH
rain 1hr
cm
rain 24hr
cm
rain mn
cm
humidity
%
barometer
mb
20260510164358 25 83 3.2 6.4 0.00 0.03 0.03 83 1017.3
20260510163853 25 31 3.2 4.8 0.00 0.03 0.03 82 1017.5
20260510163350 25 77 1.6 4.8 0.00 0.03 0.03 84 1017.3
20260510162849 25 64 3.2 11.3 0.00 0.03 0.03 83 1017.3
20260510162347 25 76 1.6 9.7 0.00 0.03 0.03 84 1017.3
20260510161842 25 54 3.2 4.8 0.00 0.03 0.03 83 1017.5
20260510161339 24 48 1.6 6.4 0.00 0.03 0.03 83 1017.5
20260510160836 25 39 1.6 6.4 0.00 0.03 0.03 83 1017.3
20260510160333 24 58 4.8 6.4 0.00 0.03 0.03 83 1017.2
20260510155832 23 56 1.6 6.4 0.00 0.03 0.03 85 1017.3
20260510155330 23 44 4.8 6.4 0.00 0.03 0.03 84 1017.4
20260510154825 24 110 6.4 11.3 0.00 0.03 0.03 84 1017.4
20260510154322 24 76 0.0 6.4 0.00 0.03 0.03 84 1017.4
20260510153821 23 52 4.8 9.7 0.00 0.03 0.03 85 1017.5
20260510153318 23 38 1.6 9.7 0.00 0.03 0.03 86 1017.5
20260510152814 23 86 4.8 6.4 0.00 0.03 0.03 85 1017.6
20260510152312 24 59 3.2 4.8 0.00 0.03 0.03 83 1017.5
20260510151808 23 79 1.6 9.7 0.00 0.03 0.03 86 1017.5
20260510151306 23 68 3.2 6.4 0.00 0.03 0.03 87 1017.5
20260510150801 23 50 6.4 11.3 0.00 0.03 0.03 86 1017.4
20260510150257 23 57 3.2 9.7 0.00 0.03 0.03 87 1017.4
20260510145753 23 65 3.2 9.7 0.00 0.03 0.03 87 1017.5
20260510145251 23 69 6.4 6.4 0.00 0.03 0.03 85 1017.3
20260510144747 23 52 3.2 3.2 0.00 0.03 0.03 87 1017.5
20260510144244 23 45 3.2 6.4 0.00 0.03 0.03 88 1017.5
20260510143743 22 71 1.6 6.4 0.00 0.03 0.03 90 1017.4
20260510143240 22 63 3.2 9.7 0.00 0.03 0.03 90 1017.3
20260510142736 22 77 4.8 6.4 0.00 0.03 0.03 90 1017.3
20260510142233 22 35 6.4 9.7 0.00 0.03 0.03 90 1017.5
20260510141730 22 33 4.8 9.7 0.00 0.03 0.03 90 1017.6
20260510141229 22 108 1.6 9.7 0.00 0.03 0.03 92 1017.5
20260510140725 22 74 1.6 1.6 0.00 0.03 0.03 92 1017.5
20260510140225 22 84 1.6 3.2 0.00 0.03 0.03 93 1017.2
20260510135720 21 57 3.2 6.4 0.00 0.03 0.03 93 1017.3
20260510135216 21 76 1.6 4.8 0.00 0.03 0.03 94 1017.2
20260510134713 21 87 3.2 9.7 0.00 0.03 0.03 94 1017.4
20260510134211 21 63 4.8 11.3 0.00 0.03 0.03 94 1017.2
20260510133706 21 68 3.2 6.4 0.00 0.03 0.03 94 1017.2
20260510133202 21 155 0.0 1.6 0.00 0.03 0.03 94 1017.1
20260510132658 21 64 3.2 4.8 0.00 0.03 0.03 95 1017.1
20260510132156 21 63 6.4 9.7 0.00 0.03 0.03 95 1016.8
20260510131653 21 83 3.2 4.8 0.00 0.03 0.03 96 1016.8
20260510131151 21 41 6.4 9.7 0.00 0.03 0.03 97 1016.8
20260510130647 21 113 0.0 6.4 0.00 0.03 0.03 98 1016.7
20260510130144 21 69 6.4 9.7 0.00 0.03 0.03 98 1016.7
20260510125640 20 63 0.0 4.8 0.00 0.03 0.03 98 1016.7
20260510125137 20 79 1.6 6.4 0.00 0.03 0.03 98 1016.5
20260510124634 20 83 1.6 4.8 0.00 0.03 0.03 98 1016.5
20260510124131 20 85 1.6 1.6 0.00 0.03 0.03 98 1016.3
20260510123626 20 95 0.0 1.6 0.00 0.03 0.03 98 1016.3
20260510123122 20 88 0.0 3.2 0.00 0.03 0.03 98 1016.2
20260510122618 20 73 1.6 1.6 0.00 0.03 0.03 98 1016.2
20260510122114 20 87 0.0 0.0 0.00 0.03 0.03 98 1016.3
20260510121612 20 88 0.0 0.0 0.00 0.03 0.03 98 1016.1
20260510121109 20 96 0.0 1.6 0.00 0.03 0.03 98 1016.0
20260510120607 20 106 0.0 3.2 0.00 0.03 0.03 98 1015.8
20260510115558 20 64 0.0 1.6 0.00 0.03 0.03 98 1015.7
20260510115056 20 98 0.0 1.6 0.00 0.03 0.03 98 1015.3
20260510114551 20 117 0.0 3.2 0.00 0.03 0.03 98 1015.6
20260510114048 20 76 1.6 1.6 0.00 0.03 0.03 98 1015.4
20260510113543 20 96 0.0 1.6 0.00 0.03 0.03 98 1015.4
20260510113041 20 102 0.0 3.2 0.00 0.03 0.03 98 1015.2
20260510112537 20 94 0.0 3.2 0.00 0.03 0.03 98 1015.0
20260510112034 20 93 0.0 1.6 0.00 0.03 0.03 98 1014.8
20260510111531 20 73 0.0 1.6 0.00 0.03 0.03 98 1014.7
20260510111026 20 81 1.6 1.6 0.00 0.03 0.03 98 1014.7
20260510110522 20 103 0.0 1.6 0.00 0.03 0.03 98 1014.6
20260510110019 20 70 1.6 1.6 0.00 0.03 0.03 98 1014.5
20260510105514 20 133 0.0 0.0 0.00 0.03 0.03 98 1014.5
20260510105009 20 110 0.0 0.0 0.00 0.03 0.03 98 1014.2
20260510104506 20 101 0.0 0.0 0.00 0.03 0.03 98 1014.2
20260510104003 20 111 0.0 0.0 0.00 0.03 0.03 98 1014.3
20260510103500 20 89 0.0 0.0 0.00 0.03 0.03 98 1014.1
20260510102955 20 88 0.0 0.0 0.00 0.03 0.03 98 1014.1
20260510102451 20 91 0.0 0.0 0.00 0.03 0.03 98 1014.1
20260510101948 19 100 0.0 0.0 0.00 0.03 0.03 98 1014.0
20260510101446 19 94 0.0 1.6 0.00 0.03 0.03 98 1013.6
20260510100944 19 98 0.0 0.0 0.00 0.03 0.03 98 1013.8
20260510100440 19 98 0.0 0.0 0.00 0.03 0.03 98 1013.9
20260510095937 19 103 0.0 1.6 0.00 0.03 0.03 98 1014.0
20260510095432 19 86 0.0 0.0 0.00 0.03 0.03 98 1013.7
20260510094931 19 115 0.0 0.0 0.00 0.03 0.03 98 1013.8
20260510094426 19 116 0.0 1.6 0.00 0.03 0.03 98 1013.8
20260510093922 20 87 0.0 3.2 0.00 0.03 0.03 98 1013.8
20260510093418 19 107 1.6 1.6 0.00 0.03 0.03 98 1013.5
20260510092915 19 95 0.0 1.6 0.00 0.03 0.03 98 1013.7
20260510092413 19 77 0.0 3.2 0.00 0.03 0.03 98 1013.6
20260510091912 19 82 0.0 0.0 0.00 0.03 0.03 98 1013.6
20260510091409 19 95 0.0 0.0 0.00 0.03 0.03 98 1013.6
20260510090906 19 95 0.0 0.0 0.00 0.03 0.03 98 1013.6
20260510090403 20 95 0.0 0.0 0.00 0.03 0.03 98 1013.7
20260510085858 20 96 0.0 0.0 0.00 0.03 0.03 98 1013.7
20260510085354 19 105 0.0 0.0 0.00 0.03 0.03 98 1013.6
20260510084849 19 99 0.0 0.0 0.00 0.03 0.03 98 1013.6
20260510084347 19 106 0.0 0.0 0.00 0.03 0.03 98 1013.6
20260510083843 19 106 0.0 0.0 0.00 0.03 0.03 98 1013.7
20260510083340 20 106 0.0 0.0 0.00 0.03 0.03 98 1013.8
20260510082835 20 83 0.0 1.6 0.00 0.03 0.03 98 1013.4
20260510082333 20 78 0.0 1.6 0.00 0.03 0.03 98 1013.4
20260510081831 20 79 1.6 3.2 0.00 0.03 0.03 98 1013.4
20260510081328 20 44 0.0 1.6 0.00 0.03 0.03 98 1013.5
20260510080824 20 106 0.0 1.6 0.00 0.03 0.03 98 1013.4
20260510080319 20 80 0.0 0.0 0.00 0.03 0.03 98 1013.4
20260510075816 20 80 0.0 0.0 0.00 0.03 0.03 98 1013.4
20260510075314 19 80 0.0 0.0 0.00 0.03 0.03 98 1013.4
20260510074810 19 81 0.0 0.0 0.00 0.03 0.03 98 1013.4
20260510074308 19 81 0.0 0.0 0.00 0.03 0.03 98 1013.4
20260510073803 19 81 0.0 0.0 0.00 0.03 0.03 98 1013.4
20260510073259 19 81 0.0 0.0 0.00 0.03 0.03 98 1013.2
20260510072755 20 80 0.0 0.0 0.00 0.03 0.03 98 1013.1
20260510072252 20 84 0.0 0.0 0.00 0.03 0.03 98 1013.1
20260510071748 20 85 0.0 0.0 0.00 0.03 0.03 98 1013.0
20260510071245 19 93 0.0 4.8 0.00 0.03 0.03 98 1013.1
20260510070744 20 81 0.0 0.0 0.00 0.03 0.03 98 1013.0
20260510070241 20 84 0.0 0.0 0.00 0.03 0.03 98 1013.1
20260510065740 20 89 0.0 0.0 0.00 0.03 0.03 98 1013.1
20260510065237 20 99 0.0 1.6 0.00 0.03 0.03 98 1013.1
20260510064734 20 109 0.0 3.2 0.00 0.03 0.03 98 1012.8
20260510064232 20 95 0.0 0.0 0.00 0.03 0.03 98 1012.9
20260510063728 20 95 0.0 0.0 0.00 0.03 0.03 98 1012.8
20260510063224 20 95 0.0 0.0 0.00 0.03 0.03 98 1013.0
20260510062721 20 97 0.0 0.0 0.00 0.03 0.03 98 1013.0
20260510062217 20 75 0.0 0.0 0.00 0.03 0.03 98 1013.2
20260510061712 20 109 0.0 0.0 0.00 0.03 0.03 97 1013.3
20260510061210 20 86 0.0 0.0 0.00 0.03 0.03 97 1013.5
20260510060706 20 88 0.0 1.6 0.00 0.03 0.03 97 1013.4
20260510060203 20 86 0.0 0.0 0.18 0.03 0.03 97 1013.4
20260510055659 20 92 0.0 0.0 0.18 0.03 0.03 97 1013.5
20260510055157 20 88 1.6 3.2 0.00 0.00 0.00 97 1013.5
20260510054652 20 106 3.2 4.8 0.00 0.00 0.00 97 1013.5
20260510054149 20 87 3.2 4.8 0.00 0.00 0.00 97 1013.4
20260510053647 20 74 1.6 3.2 0.00 0.00 0.00 97 1013.4
20260510053145 20 110 0.0 1.6 0.00 0.00 0.00 97 1013.3
20260510052640 20 35 4.8 4.8 0.00 0.00 0.00 97 1013.5
20260510052137 20 79 3.2 3.2 0.00 0.00 0.00 97 1013.4
20260510051632 20 87 0.0 3.2 0.00 0.00 0.00 97 1013.2
20260510051129 20 82 0.0 1.6 0.00 0.00 0.00 97 1013.1
20260510050626 20 116 0.0 1.6 0.00 0.00 0.00 97 1013.0
20260510050123 20 170 3.2 4.8 0.00 0.00 0.00 97 1013.0
20260510045621 20 182 6.4 9.7 0.00 3.78 3.78 97 1012.9
20260510045117 20 153 6.4 11.3 0.00 3.78 3.78 97 1012.7
20260510044613 20 166 9.7 12.9 0.00 3.78 3.78 97 1012.7
20260510044111 20 177 14.5 17.7 0.00 3.78 3.78 97 1012.5
20260510043606 20 161 8.0 16.1 0.00 3.78 3.78 98 1012.7
20260510043102 20 153 11.3 14.5 0.00 3.78 3.78 98 1012.5
20260510042601 20 159 9.7 12.9 0.00 3.78 3.78 98 1012.6
20260510042056 20 193 9.7 14.5 0.00 3.78 3.78 98 1013.0
20260510041554 20 176 12.9 16.1 0.00 3.78 3.78 98 1012.9
20260510041051 20 171 9.7 17.7 0.00 3.78 3.78 98 1012.9
20260510040548 20 186 16.1 17.7 0.00 3.78 3.78 98 1013.0
20260510040043 20 181 12.9 20.9 0.00 3.78 3.78 98 1013.2
20260510035540 20 175 14.5 17.7 0.00 3.78 3.78 98 1013.2
20260510035039 20 188 14.5 20.9 0.00 3.78 3.78 98 1013.1
20260510034538 20 170 17.7 24.1 0.00 3.78 3.78 98 1013.2
20260510034035 20 188 14.5 17.7 0.00 3.78 3.78 98 1013.0
20260510033530 20 170 9.7 14.5 0.00 3.78 3.78 98 1013.3
20260510033029 20 159 6.4 11.3 0.00 3.78 3.78 98 1013.2
20260510032525 20 177 6.4 9.7 0.00 3.78 3.78 98 1013.6
20260510032020 20 174 4.8 6.4 0.00 3.78 3.78 98 1013.8
20260510031516 20 195 1.6 3.2 0.00 3.78 3.78 98 1013.9
20260510031012 20 173 3.2 3.2 0.00 3.78 3.78 98 1014.2
20260510030507 20 183 0.0 1.6 0.00 3.78 3.78 98 1014.2
20260510030005 20 185 1.6 3.2 0.00 3.78 3.78 98 1014.3
20260510025502 20 173 4.8 4.8 0.00 3.78 3.78 98 1014.1
20260510024959 20 167 0.0 0.0 0.00 3.78 3.78 98 1014.3
20260510024456 20 166 0.0 0.0 0.00 3.78 3.78 98 1014.3
20260510023952 20 166 0.0 0.0 0.00 3.78 3.78 98 1014.2
20260510023448 20 166 0.0 0.0 0.00 3.78 3.78 98 1014.1
20260510022945 20 179 0.0 0.0 0.00 3.78 3.78 98 1014.1
20260510022444 20 174 3.2 4.8 0.00 3.78 3.78 98 1013.8
20260510021943 20 166 0.0 0.0 0.00 3.78 3.78 98 1013.9
20260510021442 20 153 0.0 0.0 0.00 3.78 3.78 98 1013.9
20260510020939 20 155 0.0 0.0 0.00 3.78 3.78 98 1014.0
20260510020438 20 157 0.0 0.0 0.00 3.78 3.78 98 1013.9
20260510015934 20 181 0.0 0.0 0.00 3.78 3.78 98 1013.9
20260510015430 20 182 0.0 0.0 0.00 3.78 3.78 98 1013.5
20260510014925 20 178 0.0 0.0 0.00 3.78 3.78 98 1013.6
20260510014423 20 168 1.6 3.2 0.00 3.78 3.78 98 1013.5
20260510013920 20 163 1.6 3.2 0.00 3.78 3.78 98 1013.4
20260510013414 20 157 1.6 3.2 0.00 3.78 3.78 98 1013.3
20260510012910 20 175 3.2 3.2 0.00 3.78 3.78 98 1013.5
20260510012406 20 167 4.8 4.8 0.00 3.78 3.78 98 1013.4
20260510011900 20 182 1.6 4.8 0.00 3.78 3.78 98 1013.3
20260510011355 20 162 1.6 3.2 0.00 3.78 3.78 98 1013.1
20260510010852 20 148 3.2 4.8 0.00 3.78 3.78 98 1013.1
20260510010349 20 153 1.6 4.8 0.00 3.78 3.78 98 1013.3
20260510005846 20 171 3.2 4.8 0.00 3.78 3.78 98 1012.9
20260510005342 20 150 3.2 4.8 0.00 3.78 3.78 98 1012.9
20260510004840 20 170 3.2 4.8 0.00 3.78 3.78 98 1012.9
20260510004337 20 177 3.2 6.4 0.00 3.78 3.78 98 1012.9
20260510003835 20 164 4.8 9.7 0.00 3.78 3.78 98 1012.7
20260510003332 20 125 6.4 9.7 0.00 3.78 3.78 98 1013.0
20260510002830 20 158 8.0 11.3 0.00 3.78 3.78 98 1012.7
20260510002328 20 160 8.0 9.7 0.00 3.78 3.78 98 1012.8
20260510001824 20 176 9.7 11.3 0.00 3.78 3.78 98 1012.7
20260510001322 20 191 6.4 11.3 0.00 3.78 3.78 98 1012.6
20260510000818 20 169 9.7 11.3 0.00 3.78 3.78 98 1012.5
20260510000318 20 167 6.4 11.3 0.00 3.78 3.78 98 1012.6
20260509235813 20 169 6.4 11.3 0.00 3.78 3.78 98 1012.6
20260509235309 20 147 4.8 9.7 0.00 3.78 3.78 98 1012.8
20260509234805 20 176 9.7 11.3 0.00 3.78 3.78 98 1012.7
20260509234302 20 156 3.2 9.7 0.00 3.78 3.78 98 1012.7
20260509233800 20 173 4.8 4.8 0.00 3.78 3.78 98 1012.4
20260509233257 20 149 4.8 6.4 0.00 3.78 3.78 98 1012.7
20260509232753 20 158 3.2 4.8 0.00 3.78 3.78 98 1012.5
20260509232251 20 164 3.2 4.8 0.00 3.78 3.78 98 1012.6
20260509231747 20 177 3.2 3.2 0.00 3.78 3.78 98 1012.5
20260509231244 20 146 1.6 1.6 0.00 3.78 3.78 98 1012.6
20260509230741 20 94 0.0 0.0 0.00 3.78 3.78 98 1012.9
20260509230238 20 75 0.0 0.0 0.00 3.78 3.78 98 1013.1
20260509225733 20 118 0.0 0.0 0.00 3.78 3.78 98 1013.2
20260509225229 20 83 0.0 0.0 0.00 3.78 3.78 98 1013.0
20260509224725 20 155 0.0 3.2 0.00 3.78 3.78 98 1013.2
20260509224223 20 164 4.8 4.8 0.00 3.78 3.78 98 1013.0
20260509223719 20 170 3.2 4.8 0.00 3.78 3.78 98 1012.9
20260509223217 20 144 3.2 6.4 0.00 3.78 3.78 98 1012.7
20260509222713 20 149 3.2 4.8 0.00 3.78 3.78 98 1012.9
20260509222209 20 162 0.0 0.0 0.00 3.78 3.78 98 1012.8
20260509221704 20 160 1.6 3.2 0.00 3.78 3.78 98 1012.6
20260509221200 20 177 3.2 3.2 0.00 3.78 3.78 98 1012.0
20260509220657 20 160 0.0 1.6 0.00 3.78 3.78 98 1012.0
20260509220154 20 164 0.0 1.6 0.00 3.78 3.78 98 1011.9
20260509215649 20 164 3.2 6.4 0.13 3.78 3.78 98 1012.2
20260509215146 20 184 8.0 9.7 0.13 3.78 3.78 98 1012.5
20260509214643 20 178 4.8 4.8 0.00 3.76 3.76 98 1012.5
20260509214140 20 130 0.0 0.0 0.18 3.76 3.76 98 1012.7
20260509213637 20 85 0.0 0.0 0.48 3.76 3.76 98 1012.6
20260509213132 20 108 0.0 0.0 0.48 3.71 3.71 98 1012.9
20260509212631 20 107 0.0 0.0 0.48 3.68 3.68 98 1013.2
20260509212127 20 109 0.0 0.0 0.18 3.63 3.63 97 1013.2
20260509211623 20 170 0.0 0.0 0.13 3.61 3.61 97 1013.1
20260509211120 20 171 0.0 0.0 0.00 3.58 3.58 97 1012.8
20260509210617 20 172 1.6 1.6 0.00 3.58 3.58 97 1012.6
20260509210114 20 182 4.8 6.4 0.00 3.58 3.58 97 1012.3
20260509205614 20 153 3.2 4.8 0.00 3.58 3.58 97 1012.2
20260509205109 20 162 3.2 3.2 0.00 3.58 3.58 97 1012.2
20260509204605 20 153 8.0 9.7 0.00 3.58 3.58 97 1011.8
20260509204102 20 169 3.2 6.4 0.00 3.58 3.58 98 1011.8
20260509203558 20 170 3.2 9.7 0.00 3.58 3.58 98 1012.0
20260509203057 19 129 3.2 9.7 0.00 3.58 3.58 98 1012.1
20260509202556 20 167 9.7 11.3 0.18 3.58 3.58 98 1012.2
20260509202052 20 124 4.8 11.3 0.18 3.58 3.58 98 1012.3
20260509201547 19 140 6.4 12.9 0.00 3.56 3.56 98 1012.2
20260509201046 20 177 8.0 11.3 0.00 3.56 3.56 98 1012.3
20260509200544 19 158 6.4 9.7 0.00 3.56 3.56 98 1012.6
20260509200042 19 166 6.4 9.7 0.00 3.56 3.56 98 1012.7
20260509195537 20 138 3.2 4.8 0.00 3.56 3.56 98 1012.8
20260509195037 19 103 0.0 1.6 0.00 3.56 3.56 98 1013.1
20260509194532 19 184 3.2 4.8 0.00 3.56 3.56 98 1013.5
20260509194030 19 141 0.0 1.6 0.00 3.56 3.56 98 1013.3
20260509193530 19 177 0.0 1.6 0.00 3.56 3.56 98 1013.5
20260509193027 18 187 4.8 4.8 0.00 3.56 3.56 98 1013.8
20260509192524 18 159 1.6 3.2 0.13 3.56 3.56 98 1013.7
20260509192019 18 168 1.6 3.2 0.13 3.56 3.56 98 1013.8
20260509191513 18 186 3.2 4.8 0.18 3.53 3.53 98 1013.7
20260509191009 18 190 6.4 6.4 0.48 3.53 3.53 98 1013.5
20260509190507 18 145 3.2 4.8 0.43 3.51 3.51 98 1013.4
20260509190005 18 180 3.2 4.8 0.30 3.45 3.45 98 1013.6
20260509185501 18 164 6.4 6.4 0.97 3.43 3.43 98 1013.5
20260509184958 18 144 4.8 4.8 0.97 3.38 3.38 98 1013.8
20260509184457 18 175 1.6 6.4 0.61 3.28 3.28 98 1014.4
20260509183953 18 191 6.4 11.3 0.43 3.23 3.23 98 1014.4
20260509183452 18 180 8.0 11.3 0.43 3.17 3.17 98 1014.3
20260509182949 18 181 9.7 12.9 0.30 3.12 3.12 98 1013.9
20260509182445 18 207 4.8 9.7 0.30 3.10 3.10 98 1013.6
20260509181943 18 196 6.4 6.4 0.13 3.07 3.07 98 1013.6
20260509181441 18 186 4.8 6.4 0.36 3.05 3.05 98 1013.3
20260509180938 18 142 4.8 12.9 0.48 3.02 3.02 98 1013.1
20260509180434 18 184 8.0 12.9 0.61 3.00 3.00 98 1013.9
20260509175931 18 191 8.0 9.7 0.30 2.95 2.95 98 1013.7
20260509175427 18 188 8.0 11.3 0.30 2.92 2.92 98 1014.1
20260509174923 19 164 9.7 11.3 0.00 2.87 2.87 98 1013.9
20260509174419 19 161 4.8 6.4 0.18 2.87 2.87 98 1013.6
20260509173916 19 157 6.4 6.4 0.30 2.87 2.87 98 1013.5
20260509173415 19 127 0.0 1.6 0.13 2.84 2.84 98 1013.8
20260509172912 19 207 1.6 4.8 0.00 2.82 2.82 98 1014.0
20260509172409 19 189 1.6 4.8 0.00 2.82 2.82 98 1013.7
20260509171904 19 178 9.7 14.5 0.18 2.82 2.82 98 1013.0
20260509171401 19 158 4.8 12.9 0.18 2.82 2.82 98 1013.7
20260509170857 19 156 4.8 12.9 0.00 2.79 2.79 98 1013.7
20260509170353 19 141 0.0 14.5 0.00 2.79 2.79 98 1013.6
20260509165848 19 155 8.0 14.5 0.13 2.79 2.79 98 1013.7
20260509165342 19 153 6.4 12.9 0.00 2.77 2.77 98 1013.9
20260509164839 19 127 8.0 12.9 0.18 2.77 2.77 98 1013.9